BAW33C EGCC-LEPA

Flight info

Callsign BAW33C
Flight time 2h 13m
Altitude 35000
Route LISTO P18 TELBA L151 KIDLI UN859 SOPIL DCT BALAN DCT EVPOK DCT NARAK DCT GAI DCT LOMRA DCT ROCAN DCT IBRAP DCT LUKEV DCT LORES
Aircraft A321/M-SDE3FGHIRWY/LB1

Departure

Time 2026-05-05 19:03
Airport Manchester Airport (EGCC)

Arrival

Time 2026-05-05 21:16
Airport Palma de Mallorca Airport (LEPA)
Time Latitude Longitude Altitude Speed Heading
2026-05-05 18:34 53.36920 -2.28744 255 ft 0 kts 135°
2026-05-05 18:50 53.36933 -2.28764 255 ft 4 kts 135°
2026-05-05 18:50 53.36947 -2.28788 255 ft 4 kts 167°
2026-05-05 18:51 53.36965 -2.28777 255 ft 4 kts 224°
2026-05-05 18:51 53.36960 -2.28785 255 ft 4 kts 225°
2026-05-05 18:51 53.36956 -2.28792 255 ft 0 kts 225°
2026-05-05 18:54 53.36955 -2.28794 255 ft 1 kts 225°
2026-05-05 18:54 53.36942 -2.28814 255 ft 4 kts 225°
2026-05-05 18:54 53.36907 -2.28874 255 ft 10 kts 225°
2026-05-05 18:54 53.36851 -2.28966 255 ft 12 kts 225°
2026-05-05 18:55 53.36784 -2.29036 255 ft 9 kts 195°
2026-05-05 18:55 53.36728 -2.29010 255 ft 9 kts 140°
2026-05-05 18:55 53.36680 -2.28940 255 ft 10 kts 141°
2026-05-05 18:55 53.36615 -2.28862 255 ft 12 kts 137°
2026-05-05 18:56 53.36567 -2.28743 255 ft 12 kts 125°
2026-05-05 18:56 53.36506 -2.28634 255 ft 13 kts 135°
2026-05-05 18:56 53.36441 -2.28523 255 ft 14 kts 132°
2026-05-05 18:56 53.36395 -2.28387 255 ft 14 kts 119°
2026-05-05 18:57 53.36331 -2.28262 255 ft 14 kts 134°
2026-05-05 18:57 53.36261 -2.28143 255 ft 15 kts 135°
2026-05-05 18:57 53.36187 -2.28020 255 ft 15 kts 136°
2026-05-05 18:57 53.36106 -2.27908 255 ft 16 kts 142°
2026-05-05 18:58 53.36021 -2.27796 255 ft 16 kts 142°
2026-05-05 18:58 53.35931 -2.27726 255 ft 13 kts 174°
2026-05-05 18:58 53.35838 -2.27734 253 ft 15 kts 185°
2026-05-05 18:58 53.35715 -2.27754 246 ft 19 kts 186°
2026-05-05 18:59 53.35608 -2.27772 240 ft 15 kts 185°
2026-05-05 18:59 53.35504 -2.27843 239 ft 16 kts 222°
2026-05-05 18:59 53.35422 -2.27977 237 ft 18 kts 224°
2026-05-05 18:59 53.35330 -2.28123 238 ft 19 kts 223°
2026-05-05 19:00 53.35234 -2.28295 232 ft 18 kts 231°
2026-05-05 19:00 53.35149 -2.28471 227 ft 21 kts 231°
2026-05-05 19:00 53.35062 -2.28652 229 ft 19 kts 230°
2026-05-05 19:00 53.34970 -2.28818 226 ft 20 kts 226°
2026-05-05 19:01 53.34883 -2.28971 221 ft 19 kts 226°
2026-05-05 19:01 53.34787 -2.29153 220 ft 22 kts 231°
2026-05-05 19:01 53.34698 -2.29312 213 ft 16 kts 213°
2026-05-05 19:01 53.34605 -2.29338 221 ft 11 kts 168°
2026-05-05 19:02 53.34545 -2.29277 215 ft 9 kts 140°
2026-05-05 19:02 53.34550 -2.29200 218 ft 7 kts 52°
2026-05-05 19:02 53.34586 -2.29125 213 ft 11 kts 51°
2026-05-05 19:02 53.34768 -2.28749 226 ft 76 kts 51°
2026-05-05 19:03 53.35233 -2.27786 238 ft 135 kts 51°
2026-05-05 19:03 53.35898 -2.26406 582 ft 157 kts 51°
2026-05-05 19:03 53.36589 -2.24966 1333 ft 159 kts 51°
2026-05-05 19:03 53.37274 -2.23514 2084 ft 159 kts 57°
2026-05-05 19:04 53.37443 -2.21643 2350 ft 181 kts 104°
2026-05-05 19:04 53.36573 -2.19955 2535 ft 209 kts 145°
2026-05-05 19:04 53.35284 -2.18616 2683 ft 228 kts 138°
2026-05-05 19:04 53.33978 -2.16958 2877 ft 250 kts 147°
2026-05-05 19:05 53.32291 -2.16025 3426 ft 264 kts 176°
2026-05-05 19:05 53.30454 -2.16624 4107 ft 270 kts 197°
2026-05-05 19:05 53.28660 -2.17427 4812 ft 271 kts 188°
2026-05-05 19:05 53.26787 -2.17825 5535 ft 272 kts 187°
2026-05-05 19:06 53.24905 -2.18183 6252 ft 273 kts 186°
2026-05-05 19:06 53.23009 -2.18512 6912 ft 275 kts 186°
2026-05-05 19:06 53.21081 -2.18828 7463 ft 282 kts 186°
2026-05-05 19:06 53.19116 -2.19140 8052 ft 285 kts 187°
2026-05-05 19:07 53.17127 -2.19454 8648 ft 289 kts 187°
2026-05-05 19:07 53.15116 -2.19771 9273 ft 291 kts 187°
2026-05-05 19:07 53.13086 -2.20091 9878 ft 295 kts 187°
2026-05-05 19:07 53.11020 -2.20413 10264 ft 306 kts 187°
2026-05-05 19:08 53.08832 -2.20759 10390 ft 325 kts 187°
2026-05-05 19:08 53.06519 -2.21127 10516 ft 342 kts 187°
2026-05-05 19:08 53.04099 -2.21514 10750 ft 355 kts 187°
2026-05-05 19:08 53.01626 -2.21903 11229 ft 359 kts 187°
2026-05-05 19:09 52.99126 -2.22291 11768 ft 362 kts 187°
2026-05-05 19:09 52.96613 -2.22677 12296 ft 364 kts 187°
2026-05-05 19:09 52.94078 -2.23066 12823 ft 367 kts 187°
2026-05-05 19:09 52.91522 -2.23464 13358 ft 370 kts 187°
2026-05-05 19:10 52.88951 -2.23866 13886 ft 373 kts 187°
2026-05-05 19:10 52.86363 -2.24295 14353 ft 375 kts 190°
2026-05-05 19:10 52.83810 -2.25179 14833 ft 375 kts 195°
2026-05-05 19:10 52.81261 -2.26159 15318 ft 377 kts 195°
2026-05-05 19:11 52.78700 -2.27144 15801 ft 379 kts 195°
2026-05-05 19:11 52.76127 -2.28137 16287 ft 381 kts 195°
2026-05-05 19:11 52.73539 -2.29136 16773 ft 383 kts 195°
2026-05-05 19:11 52.70934 -2.30083 17246 ft 385 kts 191°
2026-05-05 19:12 52.68248 -2.30323 17697 ft 390 kts 178°
2026-05-05 19:12 52.65556 -2.29609 18139 ft 395 kts 166°
2026-05-05 19:12 52.63017 -2.27973 18523 ft 400 kts 153°
2026-05-05 19:12 52.60626 -2.25500 18918 ft 403 kts 147°
2026-05-05 19:13 52.58292 -2.22928 19293 ft 404 kts 148°
2026-05-05 19:13 52.55952 -2.20359 19683 ft 406 kts 148°
2026-05-05 19:13 52.53596 -2.17787 20053 ft 408 kts 148°
2026-05-05 19:13 52.51226 -2.15209 20428 ft 409 kts 148°
2026-05-05 19:14 52.48847 -2.12628 20811 ft 411 kts 148°
2026-05-05 19:14 52.46464 -2.10036 21171 ft 412 kts 148°
2026-05-05 19:14 52.44099 -2.07468 21528 ft 414 kts 148°
2026-05-05 19:14 52.41692 -2.04857 21882 ft 416 kts 148°
2026-05-05 19:15 52.39277 -2.02239 22257 ft 418 kts 148°
2026-05-05 19:15 52.36847 -1.99610 22611 ft 420 kts 149°
2026-05-05 19:15 52.34408 -1.96975 22950 ft 421 kts 148°
2026-05-05 19:15 52.31953 -1.94329 23291 ft 423 kts 149°
2026-05-05 19:16 52.29486 -1.91677 23636 ft 425 kts 149°
2026-05-05 19:16 52.27011 -1.89022 23930 ft 427 kts 149°
2026-05-05 19:16 52.24524 -1.86354 24211 ft 429 kts 149°
2026-05-05 19:16 52.22024 -1.83672 24503 ft 430 kts 149°
2026-05-05 19:17 52.19520 -1.80988 24795 ft 432 kts 149°
2026-05-05 19:17 52.17003 -1.78294 25082 ft 433 kts 149°
2026-05-05 19:17 52.14481 -1.75602 25384 ft 434 kts 149°
2026-05-05 19:17 52.11952 -1.72909 25680 ft 435 kts 149°
2026-05-05 19:18 52.09414 -1.70208 25976 ft 437 kts 149°
2026-05-05 19:18 52.06866 -1.67497 26267 ft 438 kts 149°
2026-05-05 19:18 52.04317 -1.64784 26544 ft 439 kts 149°
2026-05-05 19:18 52.01761 -1.62059 26813 ft 440 kts 149°
2026-05-05 19:19 51.99193 -1.59323 27087 ft 442 kts 149°
2026-05-05 19:19 51.96622 -1.56597 27366 ft 443 kts 149°
2026-05-05 19:19 51.94033 -1.53865 27637 ft 444 kts 149°
2026-05-05 19:19 51.91435 -1.51144 27918 ft 445 kts 150°
2026-05-05 19:20 51.88781 -1.48572 28233 ft 444 kts 153°
2026-05-05 19:20 51.86074 -1.46169 28494 ft 445 kts 155°
2026-05-05 19:20 51.83322 -1.43862 28738 ft 445 kts 156°
2026-05-05 19:20 51.80558 -1.41590 28977 ft 446 kts 156°
2026-05-05 19:21 51.77793 -1.39304 29187 ft 447 kts 155°
2026-05-05 19:21 51.75026 -1.36975 29407 ft 448 kts 155°
2026-05-05 19:21 51.72271 -1.34618 29665 ft 448 kts 154°
2026-05-05 19:21 51.69528 -1.32245 29979 ft 447 kts 154°
2026-05-05 19:22 51.66794 -1.29869 30261 ft 445 kts 154°
2026-05-05 19:22 51.64072 -1.27508 30524 ft 444 kts 154°
2026-05-05 19:22 51.61354 -1.25162 30759 ft 443 kts 154°
2026-05-05 19:22 51.58637 -1.22825 30993 ft 442 kts 154°
2026-05-05 19:23 51.55925 -1.20500 31220 ft 442 kts 154°
2026-05-05 19:23 51.53209 -1.18179 31441 ft 441 kts 154°
2026-05-05 19:23 51.50501 -1.15873 31655 ft 441 kts 154°
2026-05-05 19:23 51.47794 -1.13570 31885 ft 440 kts 154°
2026-05-05 19:24 51.45124 -1.11301 32109 ft 440 kts 154°
2026-05-05 19:24 51.42388 -1.08974 32335 ft 439 kts 154°
2026-05-05 19:24 51.39727 -1.06709 32547 ft 438 kts 154°
2026-05-05 19:24 51.37036 -1.04418 32752 ft 438 kts 154°
2026-05-05 19:25 51.34348 -1.02140 32982 ft 437 kts 154°
2026-05-05 19:25 51.31656 -0.99865 33146 ft 438 kts 153°
2026-05-05 19:25 51.28957 -0.97591 33287 ft 439 kts 153°
2026-05-05 19:25 51.26256 -0.95316 33457 ft 439 kts 153°
2026-05-05 19:26 51.23559 -0.93041 33640 ft 438 kts 153°
2026-05-05 19:26 51.20864 -0.90769 33819 ft 438 kts 153°
2026-05-05 19:26 51.18171 -0.88500 33972 ft 437 kts 153°
2026-05-05 19:26 51.15481 -0.86244 34130 ft 437 kts 153°
2026-05-05 19:27 51.12792 -0.83995 34280 ft 437 kts 153°
2026-05-05 19:27 51.10096 -0.81742 34427 ft 437 kts 153°
2026-05-05 19:27 51.07402 -0.79494 34557 ft 437 kts 153°
2026-05-05 19:27 51.04709 -0.77247 34694 ft 438 kts 153°
2026-05-05 19:28 51.02016 -0.74999 34850 ft 437 kts 153°
2026-05-05 19:28 50.99320 -0.72745 34935 ft 438 kts 153°
2026-05-05 19:28 50.94836 -0.69000 34948 ft 438 kts 153°
2026-05-05 19:29 50.89434 -0.64519 34945 ft 438 kts 153°
2026-05-05 19:29 50.84025 -0.60060 34945 ft 438 kts 153°
2026-05-05 19:30 50.78609 -0.55611 34947 ft 438 kts 153°
2026-05-05 19:30 50.73197 -0.51166 34949 ft 439 kts 153°
2026-05-05 19:31 50.67785 -0.46711 34958 ft 439 kts 153°
2026-05-05 19:31 50.62368 -0.42265 34958 ft 439 kts 153°
2026-05-05 19:32 50.56944 -0.37830 34962 ft 440 kts 153°
2026-05-05 19:32 50.51505 -0.33410 34961 ft 440 kts 153°
2026-05-05 19:33 50.46066 -0.29008 34958 ft 440 kts 153°
2026-05-05 19:33 50.40624 -0.24609 34963 ft 440 kts 153°
2026-05-05 19:34 50.35189 -0.20193 34963 ft 440 kts 153°
2026-05-05 19:35 50.26618 -0.15189 34957 ft 439 kts 163°
2026-05-05 19:35 50.20772 -0.12406 34957 ft 439 kts 163°
2026-05-05 19:36 50.14930 -0.09629 34959 ft 439 kts 162°
2026-05-05 19:36 50.09085 -0.06856 34958 ft 439 kts 163°
2026-05-05 19:37 50.03236 -0.04101 34957 ft 439 kts 163°
2026-05-05 19:37 49.97434 -0.01371 34959 ft 439 kts 163°
2026-05-05 19:38 49.91603 0.01386 34952 ft 437 kts 162°
2026-05-05 19:38 49.85784 0.04128 34949 ft 437 kts 162°
2026-05-05 19:39 49.79965 0.06841 34947 ft 436 kts 162°
2026-05-05 19:39 49.74157 0.09552 34952 ft 435 kts 162°
2026-05-05 19:40 49.68363 0.12254 34941 ft 435 kts 162°
2026-05-05 19:40 49.62574 0.14943 34941 ft 435 kts 162°
2026-05-05 19:41 49.56773 0.17633 34940 ft 435 kts 162°
2026-05-05 19:41 49.50971 0.20304 34951 ft 435 kts 162°
2026-05-05 19:42 49.45206 0.22956 34915 ft 436 kts 162°
2026-05-05 19:42 49.39393 0.25644 34915 ft 436 kts 162°
2026-05-05 19:43 49.33578 0.28318 34914 ft 437 kts 162°
2026-05-05 19:43 49.27749 0.30988 34914 ft 437 kts 162°
2026-05-05 19:44 49.21917 0.33649 34918 ft 437 kts 162°
2026-05-05 19:44 49.16082 0.36308 34917 ft 438 kts 162°
2026-05-05 19:45 49.10241 0.38959 34912 ft 438 kts 162°
2026-05-05 19:45 49.04396 0.41603 34929 ft 438 kts 162°
2026-05-05 19:46 48.98549 0.44251 34925 ft 438 kts 162°
2026-05-05 19:46 48.92704 0.46898 34925 ft 438 kts 162°
2026-05-05 19:47 48.86853 0.49536 34919 ft 438 kts 162°
2026-05-05 19:47 48.80999 0.52161 34919 ft 439 kts 162°
2026-05-05 19:48 48.75131 0.54692 34915 ft 439 kts 164°
2026-05-05 19:48 48.69211 0.56983 34916 ft 439 kts 165°
2026-05-05 19:49 48.63287 0.59217 34922 ft 439 kts 165°
2026-05-05 19:49 48.57362 0.61508 34916 ft 440 kts 164°
2026-05-05 19:50 48.51439 0.63819 34914 ft 440 kts 164°
2026-05-05 19:50 48.45521 0.66201 34914 ft 440 kts 163°
2026-05-05 19:51 48.39650 0.68622 34913 ft 440 kts 163°
2026-05-05 19:51 48.33697 0.71055 34905 ft 441 kts 163°
2026-05-05 19:52 48.27812 0.73427 34904 ft 441 kts 164°
2026-05-05 19:52 48.21883 0.75811 34908 ft 441 kts 164°
2026-05-05 19:53 48.15945 0.78161 34907 ft 441 kts 164°
2026-05-05 19:53 48.10009 0.80486 34907 ft 442 kts 165°
2026-05-05 19:54 48.04059 0.82796 34911 ft 442 kts 165°
2026-05-05 19:54 47.98114 0.85113 34901 ft 441 kts 165°
2026-05-05 19:55 47.92170 0.87437 34906 ft 441 kts 165°
2026-05-05 19:55 47.86227 0.89746 34908 ft 441 kts 165°
2026-05-05 19:56 47.80288 0.92054 34906 ft 441 kts 165°
2026-05-05 19:56 47.74343 0.94352 34897 ft 442 kts 165°
2026-05-05 19:57 47.68384 0.96657 34899 ft 443 kts 165°
2026-05-05 19:57 47.62407 0.98961 34894 ft 444 kts 165°
2026-05-05 19:58 47.56462 1.01244 34892 ft 444 kts 165°
2026-05-05 19:58 47.50472 1.03549 34892 ft 445 kts 166°
2026-05-05 19:59 47.44465 1.05801 34902 ft 446 kts 169°
2026-05-05 19:59 47.38290 1.06340 34898 ft 445 kts 181°
2026-05-05 20:00 47.32098 1.06181 34919 ft 445 kts 181°
2026-05-05 20:00 47.25919 1.06043 34921 ft 444 kts 181°
2026-05-05 20:01 47.19751 1.05911 34918 ft 443 kts 181°
2026-05-05 20:01 47.13585 1.05764 34919 ft 443 kts 181°
2026-05-05 20:02 47.07427 1.05619 34917 ft 442 kts 181°
2026-05-05 20:02 47.01273 1.05467 34914 ft 442 kts 181°
2026-05-05 20:03 46.95124 1.05224 34905 ft 442 kts 182°
2026-05-05 20:03 46.88979 1.04940 34915 ft 442 kts 182°
2026-05-05 20:04 46.82835 1.04654 34917 ft 442 kts 182°
2026-05-05 20:04 46.76684 1.04387 34915 ft 442 kts 182°
2026-05-05 20:05 46.70536 1.04128 34920 ft 442 kts 182°
2026-05-05 20:05 46.64382 1.03869 34925 ft 442 kts 182°
2026-05-05 20:06 46.58271 1.03612 34920 ft 442 kts 182°
2026-05-05 20:06 46.52080 1.03502 34927 ft 442 kts 175°
2026-05-05 20:07 46.46087 1.05177 34921 ft 442 kts 167°
2026-05-05 20:07 46.40089 1.07190 34929 ft 443 kts 168°
2026-05-05 20:08 46.34086 1.09197 34937 ft 443 kts 168°
2026-05-05 20:08 46.28086 1.11191 34943 ft 442 kts 168°
2026-05-05 20:09 46.22090 1.13188 34945 ft 442 kts 168°
2026-05-05 20:09 46.16097 1.15168 34950 ft 442 kts 168°
2026-05-05 20:10 46.10108 1.17143 34959 ft 441 kts 168°
2026-05-05 20:10 46.04124 1.19124 34958 ft 441 kts 168°
2026-05-05 20:11 45.98143 1.21105 34967 ft 440 kts 168°
2026-05-05 20:11 45.92174 1.23070 34968 ft 440 kts 168°
2026-05-05 20:12 45.86208 1.25012 34968 ft 440 kts 168°
2026-05-05 20:12 45.80237 1.26950 34967 ft 440 kts 168°
2026-05-05 20:13 45.74268 1.28908 34962 ft 440 kts 168°
2026-05-05 20:13 45.68298 1.30860 34955 ft 440 kts 168°
2026-05-05 20:14 45.62322 1.32808 34958 ft 440 kts 168°
2026-05-05 20:14 45.56345 1.34746 34960 ft 440 kts 169°
2026-05-05 20:15 45.50372 1.36669 34961 ft 440 kts 169°
2026-05-05 20:15 45.44399 1.38590 34961 ft 440 kts 169°
2026-05-05 20:16 45.38477 1.40496 34961 ft 439 kts 169°
2026-05-05 20:16 45.32511 1.42420 34965 ft 439 kts 169°
2026-05-05 20:17 45.26550 1.44338 34965 ft 439 kts 169°
2026-05-05 20:17 45.20592 1.46237 34964 ft 439 kts 169°
2026-05-05 20:18 45.14635 1.48135 34961 ft 439 kts 169°
2026-05-05 20:18 45.09677 1.49715 34963 ft 439 kts 169°
2026-05-05 20:19 45.03715 1.51620 34964 ft 439 kts 169°
2026-05-05 20:19 44.97752 1.53524 34949 ft 439 kts 170°
2026-05-05 20:20 44.91788 1.55407 34960 ft 439 kts 170°
2026-05-05 20:20 44.85835 1.57285 34966 ft 438 kts 170°
2026-05-05 20:21 44.79888 1.59160 34970 ft 438 kts 170°
2026-05-05 20:21 44.73946 1.61040 34972 ft 438 kts 170°
2026-05-05 20:22 44.68003 1.62909 34980 ft 438 kts 170°
2026-05-05 20:22 44.62062 1.64766 34979 ft 438 kts 170°
2026-05-05 20:23 44.56121 1.66619 34978 ft 437 kts 170°
2026-05-05 20:23 44.50182 1.68476 34981 ft 437 kts 171°
2026-05-05 20:24 44.44250 1.70309 34984 ft 437 kts 171°
2026-05-05 20:24 44.38321 1.72153 34974 ft 436 kts 171°
2026-05-05 20:25 44.32439 1.73982 34983 ft 436 kts 171°
2026-05-05 20:25 44.26507 1.75715 34985 ft 435 kts 173°
2026-05-05 20:26 44.20544 1.77026 34983 ft 434 kts 175°
2026-05-05 20:26 44.14568 1.78223 34987 ft 434 kts 175°
2026-05-05 20:27 44.08602 1.79484 34989 ft 434 kts 174°
2026-05-05 20:27 44.02638 1.80814 34994 ft 434 kts 174°
2026-05-05 20:28 43.96673 1.82141 34986 ft 434 kts 174°
2026-05-05 20:28 43.90695 1.83127 34991 ft 432 kts 179°
2026-05-05 20:29 43.84705 1.83609 35002 ft 431 kts 181°
2026-05-05 20:29 43.78719 1.84042 34999 ft 431 kts 180°
2026-05-05 20:30 43.72728 1.84589 35011 ft 431 kts 180°
2026-05-05 20:30 43.66738 1.85190 35015 ft 431 kts 179°
2026-05-05 20:31 43.60752 1.85782 35004 ft 431 kts 180°
2026-05-05 20:31 43.54762 1.86361 35015 ft 431 kts 180°
2026-05-05 20:32 43.48811 1.86926 35019 ft 432 kts 180°
2026-05-05 20:32 43.42819 1.87499 35021 ft 432 kts 180°
2026-05-05 20:33 43.36828 1.88074 35002 ft 432 kts 180°
2026-05-05 20:33 43.30834 1.88651 35012 ft 432 kts 180°
2026-05-05 20:34 43.24839 1.89222 35019 ft 432 kts 180°
2026-05-05 20:34 43.18838 1.89799 35011 ft 432 kts 180°
2026-05-05 20:35 43.12841 1.90367 35016 ft 432 kts 181°
2026-05-05 20:35 43.06835 1.90940 34991 ft 432 kts 180°
2026-05-05 20:36 43.00840 1.91513 35027 ft 432 kts 181°
2026-05-05 20:36 42.94857 1.92077 35010 ft 431 kts 181°
2026-05-05 20:37 42.88881 1.92640 35022 ft 430 kts 181°
2026-05-05 20:37 42.82920 1.93197 35024 ft 429 kts 181°
2026-05-05 20:38 42.76961 1.93753 35025 ft 429 kts 181°
2026-05-05 20:38 42.71001 1.94313 35022 ft 429 kts 181°
2026-05-05 20:39 42.65072 1.95453 35005 ft 436 kts 171°
2026-05-05 20:39 42.59212 1.97593 34994 ft 436 kts 171°
2026-05-05 20:40 42.53383 1.99704 34997 ft 436 kts 171°
2026-05-05 20:40 42.47513 2.01807 34994 ft 436 kts 171°
2026-05-05 20:41 42.41638 2.03910 34985 ft 436 kts 171°
2026-05-05 20:41 42.35769 2.06004 34969 ft 436 kts 172°
2026-05-05 20:42 42.29898 2.08094 34972 ft 436 kts 172°
2026-05-05 20:42 42.24025 2.10182 34969 ft 436 kts 172°
2026-05-05 20:43 42.18161 2.12256 34974 ft 436 kts 172°
2026-05-05 20:43 42.12298 2.14329 34961 ft 435 kts 172°
2026-05-05 20:44 42.06437 2.16397 34960 ft 435 kts 172°
2026-05-05 20:44 42.00575 2.18461 34959 ft 435 kts 172°
2026-05-05 20:45 41.91827 2.21559 34951 ft 430 kts 174°
2026-05-05 20:45 41.86062 2.23623 34934 ft 429 kts 173°
2026-05-05 20:46 41.80271 2.25613 34941 ft 430 kts 174°
2026-05-05 20:46 41.74474 2.27600 34904 ft 431 kts 174°
2026-05-05 20:47 41.68708 2.29644 34929 ft 427 kts 174°
2026-05-05 20:47 41.63003 2.31636 34711 ft 427 kts 175°
2026-05-05 20:48 41.60132 2.32622 34347 ft 425 kts 175°
2026-05-05 20:48 41.57280 2.33607 34010 ft 422 kts 175°
2026-05-05 20:48 41.54452 2.34588 33614 ft 418 kts 175°
2026-05-05 20:48 41.51648 2.35564 33132 ft 415 kts 175°
2026-05-05 20:49 41.48868 2.36531 32905 ft 411 kts 175°
2026-05-05 20:49 41.46097 2.37491 32931 ft 412 kts 175°
2026-05-05 20:49 41.40545 2.39410 32932 ft 412 kts 175°
2026-05-05 20:50 41.34980 2.41324 32607 ft 414 kts 175°
2026-05-05 20:50 41.32209 2.42279 32147 ft 409 kts 175°
2026-05-05 20:50 41.29460 2.43227 31760 ft 407 kts 175°
2026-05-05 20:51 41.26738 2.44171 31380 ft 401 kts 175°
2026-05-05 20:51 41.24061 2.45105 31001 ft 395 kts 175°
2026-05-05 20:51 41.21413 2.46024 30633 ft 391 kts 176°
2026-05-05 20:51 41.18787 2.46921 30267 ft 389 kts 176°
2026-05-05 20:52 41.16173 2.47809 29891 ft 387 kts 176°
2026-05-05 20:52 41.13572 2.48695 29464 ft 384 kts 176°
2026-05-05 20:52 41.10993 2.49578 29047 ft 382 kts 176°
2026-05-05 20:52 41.08431 2.50459 28605 ft 379 kts 176°
2026-05-05 20:53 41.05881 2.51336 28200 ft 377 kts 176°
2026-05-05 20:53 41.03350 2.52202 27803 ft 375 kts 176°
2026-05-05 20:53 41.00834 2.53060 27408 ft 372 kts 176°
2026-05-05 20:53 40.98336 2.53909 26995 ft 369 kts 176°
2026-05-05 20:54 40.95858 2.54751 26590 ft 367 kts 176°
2026-05-05 20:54 40.93392 2.55591 26186 ft 364 kts 176°
2026-05-05 20:54 40.90948 2.56426 25796 ft 362 kts 176°
2026-05-05 20:54 40.88515 2.57255 25405 ft 360 kts 176°
2026-05-05 20:55 40.86100 2.58076 24965 ft 358 kts 176°
2026-05-05 20:55 40.83692 2.58892 24590 ft 356 kts 176°
2026-05-05 20:55 40.81330 2.59695 24214 ft 354 kts 176°
2026-05-05 20:55 40.78949 2.60500 23843 ft 352 kts 176°
2026-05-05 20:56 40.76581 2.61297 23471 ft 350 kts 176°
2026-05-05 20:56 40.74228 2.62088 23037 ft 348 kts 176°
2026-05-05 20:56 40.71895 2.62877 22606 ft 345 kts 176°
2026-05-05 20:56 40.69574 2.63664 22182 ft 343 kts 176°
2026-05-05 20:57 40.67272 2.64445 21762 ft 340 kts 175°
2026-05-05 20:57 40.64984 2.65218 21349 ft 338 kts 175°
2026-05-05 20:57 40.62714 2.65984 20942 ft 336 kts 175°
2026-05-05 20:57 40.60459 2.66748 20543 ft 334 kts 175°
2026-05-05 20:58 40.58218 2.67507 20127 ft 331 kts 175°
2026-05-05 20:58 40.55997 2.68258 19758 ft 328 kts 175°
2026-05-05 20:58 40.53790 2.69003 19397 ft 326 kts 175°
2026-05-05 20:58 40.51600 2.69739 19039 ft 325 kts 174°
2026-05-05 20:59 40.49446 2.70711 18683 ft 332 kts 164°
2026-05-05 20:59 40.47392 2.72146 18334 ft 334 kts 160°
2026-05-05 20:59 40.45364 2.73621 17954 ft 332 kts 160°
2026-05-05 20:59 40.43345 2.75087 17536 ft 330 kts 160°
2026-05-05 21:00 40.41349 2.76534 17125 ft 326 kts 160°
2026-05-05 21:00 40.39381 2.77962 16733 ft 321 kts 159°
2026-05-05 21:00 40.37441 2.79372 16346 ft 316 kts 159°
2026-05-05 21:00 40.35527 2.80760 15953 ft 312 kts 159°
2026-05-05 21:01 40.33638 2.82130 15590 ft 309 kts 159°
2026-05-05 21:01 40.31764 2.83486 15218 ft 306 kts 159°
2026-05-05 21:01 40.29903 2.84828 14843 ft 304 kts 159°
2026-05-05 21:01 40.28078 2.86138 14487 ft 302 kts 158°
2026-05-05 21:02 40.26239 2.87455 14133 ft 301 kts 158°
2026-05-05 21:02 40.24412 2.88767 13776 ft 299 kts 158°
2026-05-05 21:02 40.22591 2.90079 13379 ft 298 kts 158°
2026-05-05 21:02 40.20777 2.91386 12960 ft 298 kts 157°
2026-05-05 21:03 40.18958 2.92695 12567 ft 299 kts 157°
2026-05-05 21:03 40.17137 2.94007 12179 ft 299 kts 157°
2026-05-05 21:03 40.15317 2.95315 11797 ft 298 kts 157°
2026-05-05 21:03 40.13500 2.96616 11418 ft 298 kts 157°
2026-05-05 21:04 40.11682 2.97917 11047 ft 298 kts 157°
2026-05-05 21:04 40.09868 2.99216 10672 ft 297 kts 156°
2026-05-05 21:04 40.08057 3.00515 10317 ft 297 kts 156°
2026-05-05 21:04 40.06243 3.01816 9948 ft 297 kts 156°
2026-05-05 21:05 40.04398 3.02993 9567 ft 294 kts 161°
2026-05-05 21:05 40.02525 3.04042 9177 ft 292 kts 162°
2026-05-05 21:05 40.00655 3.05065 8789 ft 290 kts 162°
2026-05-05 21:05 39.98796 3.06068 8386 ft 288 kts 162°
2026-05-05 21:06 39.96955 3.07029 8012 ft 279 kts 162°
2026-05-05 21:06 39.95174 3.07946 7931 ft 274 kts 162°
2026-05-05 21:06 39.93393 3.08857 7947 ft 275 kts 162°
2026-05-05 21:06 39.91612 3.09767 7948 ft 275 kts 162°
2026-05-05 21:07 39.89823 3.10678 7701 ft 277 kts 162°
2026-05-05 21:07 39.88028 3.11587 7323 ft 276 kts 162°
2026-05-05 21:07 39.86191 3.12135 6954 ft 268 kts 185°
2026-05-05 21:07 39.84447 3.11591 6587 ft 250 kts 208°
2026-05-05 21:08 39.82934 3.10595 6261 ft 241 kts 212°
2026-05-05 21:08 39.81969 3.09910 6065 ft 237 kts 212°
2026-05-05 21:08 39.80536 3.08886 5753 ft 234 kts 212°
2026-05-05 21:08 39.79111 3.07873 5464 ft 233 kts 212°
2026-05-05 21:09 39.77698 3.06870 5215 ft 228 kts 212°
2026-05-05 21:09 39.76340 3.05918 4940 ft 216 kts 212°
2026-05-05 21:09 39.75035 3.05008 4732 ft 211 kts 212°
2026-05-05 21:09 39.73758 3.04111 4477 ft 207 kts 212°
2026-05-05 21:10 39.72495 3.03213 4223 ft 207 kts 212°
2026-05-05 21:10 39.71231 3.02312 3966 ft 207 kts 212°
2026-05-05 21:10 39.69974 3.01416 3719 ft 206 kts 212°
2026-05-05 21:10 39.68721 3.00518 3466 ft 206 kts 212°
2026-05-05 21:11 39.67468 2.99623 3211 ft 206 kts 212°
2026-05-05 21:11 39.66265 2.98644 3044 ft 203 kts 225°
2026-05-05 21:11 39.65436 2.97200 3016 ft 200 kts 241°
2026-05-05 21:11 39.64744 2.95724 3001 ft 181 kts 241°
2026-05-05 21:12 39.64118 2.94393 3006 ft 167 kts 241°
2026-05-05 21:12 39.63534 2.93147 2930 ft 162 kts 241°
2026-05-05 21:12 39.62954 2.91911 2767 ft 160 kts 242°
2026-05-05 21:12 39.62379 2.90686 2574 ft 159 kts 242°
2026-05-05 21:13 39.61807 2.89468 2378 ft 158 kts 241°
2026-05-05 21:13 39.61235 2.88255 2164 ft 158 kts 241°
2026-05-05 21:13 39.60677 2.87067 1982 ft 149 kts 240°
2026-05-05 21:13 39.60145 2.85939 1777 ft 144 kts 241°
2026-05-05 21:14 39.59628 2.84839 1575 ft 142 kts 240°
2026-05-05 21:14 39.59112 2.83743 1383 ft 142 kts 240°
2026-05-05 21:14 39.58595 2.82642 1184 ft 144 kts 239°
2026-05-05 21:14 39.58068 2.81545 1016 ft 143 kts 238°
2026-05-05 21:15 39.57547 2.80440 821 ft 144 kts 239°
2026-05-05 21:15 39.57035 2.79333 626 ft 143 kts 239°
2026-05-05 21:15 39.56518 2.78239 429 ft 142 kts 237°
2026-05-05 21:15 39.56011 2.77157 245 ft 140 kts 237°
2026-05-05 21:16 39.55504 2.76079 69 ft 140 kts 238°
2026-05-05 21:16 39.55047 2.75117 38 ft 93 kts 238°
2026-05-05 21:16 39.54852 2.74685 38 ft 29 kts 247°
2026-05-05 21:16 39.54812 2.74487 38 ft 20 kts 261°
2026-05-05 21:17 39.54805 2.74342 38 ft 14 kts 268°
2026-05-05 21:17 39.54803 2.74265 38 ft 0 kts 268°
2026-05-05 21:17 39.54803 2.74259 38 ft 2 kts 268°
2026-05-05 21:18 39.54804 2.74214 38 ft 7 kts 274°
2026-05-05 21:18 39.54826 2.74138 37 ft 11 kts 306°
2026-05-05 21:18 39.54901 2.74067 38 ft 14 kts 329°
2026-05-05 21:18 39.54990 2.73998 38 ft 15 kts 329°
2026-05-05 21:19 39.55085 2.73924 38 ft 16 kts 328°
2026-05-05 21:19 39.55183 2.73846 38 ft 17 kts 329°
2026-05-05 21:19 39.55288 2.73765 38 ft 18 kts 329°
2026-05-05 21:19 39.55394 2.73680 38 ft 18 kts 328°
2026-05-05 21:20 39.55487 2.73607 38 ft 8 kts 329°
2026-05-05 21:20 39.55493 2.73553 38 ft 8 kts 245°
2026-05-05 21:20 39.55463 2.73484 38 ft 9 kts 239°
2026-05-05 21:20 39.55426 2.73407 38 ft 11 kts 238°
2026-05-05 21:21 39.55383 2.73316 38 ft 13 kts 238°
2026-05-05 21:21 39.55333 2.73211 38 ft 14 kts 238°
2026-05-05 21:21 39.55279 2.73097 38 ft 16 kts 238°
2026-05-05 21:21 39.55219 2.72974 38 ft 16 kts 238°
2026-05-05 21:22 39.55160 2.72847 37 ft 17 kts 239°
2026-05-05 21:22 39.55118 2.72758 36 ft 0 kts 238°
2026-05-05 21:23 39.55118 2.72757 36 ft 0 kts 238°
2026-05-05 21:23 39.55111 2.72742 38 ft 5 kts 238°
2026-05-05 21:23 39.55090 2.72696 38 ft 7 kts 240°
2026-05-05 21:24 39.55067 2.72647 38 ft 6 kts 239°
2026-05-05 21:24 39.55045 2.72602 38 ft 6 kts 238°
2026-05-05 21:24 39.55042 2.72550 38 ft 6 kts 302°
2026-05-05 21:24 39.55083 2.72515 38 ft 8 kts 332°
2026-05-05 21:25 39.55134 2.72481 38 ft 9 kts 340°
2026-05-05 21:25 39.55186 2.72510 38 ft 9 kts 53°
2026-05-05 21:25 39.55221 2.72585 37 ft 10 kts 59°
2026-05-05 21:25 39.55261 2.72671 38 ft 13 kts 58°
2026-05-05 21:26 39.55316 2.72786 38 ft 16 kts 58°
2026-05-05 21:26 39.55371 2.72903 38 ft 12 kts 58°
2026-05-05 21:26 39.55360 2.72982 37 ft 10 kts 142°
2026-05-05 21:26 39.55298 2.73032 38 ft 11 kts 149°
2026-05-05 21:27 39.55235 2.73009 37 ft 11 kts 233°
2026-05-05 21:27 39.55203 2.72940 38 ft 6 kts 239°
2026-05-05 21:27 39.55196 2.72924 38 ft 0 kts 239°
2026-05-05 21:28 39.55195 2.72923 38 ft 1 kts 239°
2026-05-05 21:28 39.55189 2.72910 36 ft 3 kts 239°
2026-05-05 21:28 39.55173 2.72885 38 ft 4 kts 213°
2026-05-05 21:29 39.55145 2.72887 38 ft 5 kts 169°
2026-05-05 21:29 39.55120 2.72896 38 ft 2 kts 164°
2026-05-05 21:29 39.55106 2.72901 38 ft 1 kts 163°
2026-05-05 21:29 39.55101 2.72902 38 ft 0 kts 163°